Language: 


Des rapports , des résumés tant et plus, au choix de chacun....


Données Historiques de Météogheer
Journalier Rapport pour Février 22, 2018 Unitée:  Métrique    Impériale   Les deux
Suivant Jour »
Journalier Hebdomadaire Mensuel Annuel Sur mesure
  Max: Min: Moyenne:
Température: 6.4 °C -1.9 °C 1.6 °C
Point de rosée: -1.0 °C -5.0 °C -3.7 °C
Humidité: 89% 43% 71%
Vent: 29.9km/h 3.2km/h 12.8km/h
Rafales: 31.4km/h - -
Vent- - NE
Pression: 1022.9 hPa 1018.8 hPa -
Pluie: 0.0 mm    
Historical Graphs
 
 
Données tabulaires pour Février 22, 2018
Heure Température Point de rosée Pression Vent Vent Rafales Humidité Pluie Taux (Horaire) Conditions
00:04 0.4 °C -1.0 °C 1022.9 hPa NE 12.6 km/h 13.0 km/h 88% 0.0 mm
00:09 0.4 °C -1.0 °C 1022.9 hPa NE 12.2 km/h 12.6 km/h 88% 0.0 mm
00:14 0.4 °C -1.0 °C 1022.9 hPa NE 9.0 km/h 12.6 km/h 88% 0.0 mm
00:19 0.3 °C -1.0 °C 1022.9 hPa NNE 13.0 km/h 13.0 km/h 88% 0.0 mm
00:24 0.3 °C -1.0 °C 1022.9 hPa NE 9.7 km/h 13.0 km/h 88% 0.0 mm
00:29 0.2 °C -1.0 °C 1022.9 hPa NNE 10.5 km/h 14.0 km/h 88% 0.0 mm
00:34 0.1 °C -1.0 °C 1022.9 hPa NNE 11.6 km/h 14.0 km/h 88% 0.0 mm
00:39 0.1 °C -1.0 °C 1022.9 hPa NNE 11.6 km/h 11.6 km/h 88% 0.0 mm
00:44 0.0 °C -3.0 °C 1022.9 hPa NNE 9.3 km/h 13.0 km/h 88% 0.0 mm
00:49 -0.1 °C -3.0 °C 1022.9 hPa NE 9.0 km/h 13.0 km/h 88% 0.0 mm
00:54 -0.1 °C -3.0 °C 1022.9 hPa NNE 10.1 km/h 12.6 km/h 88% 0.0 mm
00:59 -0.2 °C -3.0 °C 1022.9 hPa NNE 10.5 km/h 13.7 km/h 88% 0.0 mm
01:04 -0.2 °C -3.0 °C 1022.9 hPa NE 6.9 km/h 13.7 km/h 88% 0.0 mm
01:09 -0.3 °C -3.0 °C 1022.9 hPa NNE 12.6 km/h 13.0 km/h 89% 0.0 mm
01:14 -0.3 °C -3.0 °C 1022.9 hPa NNE 3.2 km/h 14.8 km/h 89% 0.0 mm
01:19 -0.3 °C -3.0 °C 1022.9 hPa NE 13.7 km/h 14.8 km/h 89% 0.0 mm
01:24 -0.3 °C -3.0 °C 1022.9 hPa NNE 9.3 km/h 13.7 km/h 89% 0.0 mm
01:29 -0.4 °C -3.0 °C 1022.9 hPa NNE 12.6 km/h 13.7 km/h 89% 0.0 mm
01:34 -0.4 °C -3.0 °C 1022.9 hPa NE 9.7 km/h 13.7 km/h 89% 0.0 mm
01:40 -0.4 °C -3.0 °C 1022.9 hPa NNE 13.0 km/h 13.7 km/h 89% 0.0 mm
01:45 -0.4 °C -3.0 °C 1021.9 hPa NE 9.3 km/h 13.0 km/h 89% 0.0 mm
01:50 -0.5 °C -3.0 °C 1021.9 hPa NE 6.9 km/h 13.0 km/h 89% 0.0 mm
01:55 -0.5 °C -3.0 °C 1021.9 hPa NNE 9.0 km/h 11.9 km/h 89% 0.0 mm
02:00 -0.5 °C -3.0 °C 1021.9 hPa NNE 9.0 km/h 9.0 km/h 89% 0.0 mm
02:05 -0.5 °C -3.0 °C 1021.9 hPa NNE 10.5 km/h 10.5 km/h 89% 0.0 mm
02:10 -0.6 °C -3.0 °C 1021.9 hPa NNE 8.7 km/h 10.5 km/h 89% 0.0 mm
02:15 -0.6 °C -3.0 °C 1021.9 hPa NNE 8.7 km/h 10.5 km/h 89% 0.0 mm
02:20 -0.7 °C -3.0 °C 1021.9 hPa NE 9.7 km/h 9.7 km/h 89% 0.0 mm
02:25 -0.7 °C -3.0 °C 1021.9 hPa NNE 11.9 km/h 11.9 km/h 89% 0.0 mm
02:30 -0.8 °C -3.0 °C 1021.9 hPa NE 6.9 km/h 11.9 km/h 89% 0.0 mm
02:35 -0.8 °C -3.0 °C 1021.9 hPa NE 6.9 km/h 11.9 km/h 89% 0.0 mm
02:40 -0.8 °C -3.0 °C 1021.9 hPa NE 6.9 km/h 6.9 km/h 89% 0.0 mm
02:45 -0.8 °C -3.0 °C 1021.9 hPa NE 6.9 km/h 6.9 km/h 89% 0.0 mm
02:50 -0.8 °C -3.0 °C 1021.9 hPa NE 6.9 km/h 6.9 km/h 89% 0.0 mm
02:55 -0.9 °C -3.0 °C 1021.9 hPa NNE 9.7 km/h 9.7 km/h 89% 0.0 mm
03:00 -0.9 °C -3.0 °C 1021.9 hPa NNE 9.7 km/h 9.7 km/h 89% 0.0 mm
03:05 -1.0 °C -3.0 °C 1021.9 hPa NNE 9.7 km/h 9.7 km/h 89% 0.0 mm
03:10 -1.0 °C -3.0 °C 1021.9 hPa NE 8.7 km/h 10.1 km/h 89% 0.0 mm
03:15 -1.0 °C -3.0 °C 1020.9 hPa NNE 9.7 km/h 10.1 km/h 89% 0.0 mm
03:20 -1.0 °C -3.0 °C 1020.9 hPa NE 9.7 km/h 9.7 km/h 89% 0.0 mm
03:25 -1.0 °C -3.0 °C 1020.9 hPa ENE 10.5 km/h 12.2 km/h 89% 0.0 mm
03:30 -1.0 °C -3.0 °C 1020.9 hPa NNE 10.1 km/h 12.2 km/h 89% 0.0 mm
03:35 -1.1 °C -3.0 °C 1020.9 hPa NNE 9.3 km/h 11.6 km/h 89% 0.0 mm
03:40 -1.1 °C -3.0 °C 1020.9 hPa NNE 9.3 km/h 10.1 km/h 89% 0.0 mm
03:45 -1.2 °C -3.0 °C 1020.9 hPa NNE 9.3 km/h 9.3 km/h 89% 0.0 mm
03:50 -1.2 °C -3.0 °C 1020.9 hPa NE 9.7 km/h 9.7 km/h 89% 0.0 mm
03:55 -1.3 °C -3.0 °C 1020.9 hPa NE 9.7 km/h 9.7 km/h 89% 0.0 mm
04:00 -1.3 °C -3.0 °C 1020.9 hPa NE 9.7 km/h 9.7 km/h 89% 0.0 mm
04:05 -1.3 °C -3.0 °C 1020.9 hPa NE 6.9 km/h 9.7 km/h 89% 0.0 mm
04:10 -1.3 °C -3.0 °C 1020.9 hPa NNE 7.9 km/h 7.9 km/h 89% 0.0 mm
04:15 -1.4 °C -3.0 °C 1020.9 hPa NNE 9.7 km/h 9.7 km/h 89% 0.0 mm
04:20 -1.4 °C -3.0 °C 1020.9 hPa NE 9.3 km/h 9.7 km/h 89% 0.0 mm
04:25 -1.4 °C -3.0 °C 1020.9 hPa NE 9.3 km/h 9.7 km/h 89% 0.0 mm
04:30 -1.4 °C -3.0 °C 1020.9 hPa NE 9.3 km/h 9.3 km/h 89% 0.0 mm
04:36 -1.4 °C -3.0 °C 1020.9 hPa NNE 9.3 km/h 9.3 km/h 89% 0.0 mm
04:41 -1.4 °C -3.0 °C 1020.9 hPa NE 12.6 km/h 12.6 km/h 89% 0.0 mm
04:46 -1.5 °C -4.0 °C 1020.9 hPa ENE 11.6 km/h 14.0 km/h 89% 0.0 mm
04:51 -1.5 °C -4.0 °C 1020.9 hPa ENE 11.6 km/h 14.0 km/h 89% 0.0 mm
04:56 -1.5 °C -4.0 °C 1020.9 hPa ENE 11.6 km/h 14.0 km/h 89% 0.0 mm
05:01 -1.5 °C -4.0 °C 1020.9 hPa ENE 11.6 km/h 11.6 km/h 89% 0.0 mm
05:06 -1.5 °C -4.0 °C 1020.9 hPa NE 10.1 km/h 11.6 km/h 89% 0.0 mm
05:11 -1.5 °C -4.0 °C 1020.9 hPa NE 10.1 km/h 11.6 km/h 89% 0.0 mm
05:16 -1.6 °C -4.0 °C 1020.9 hPa NE 10.1 km/h 10.1 km/h 89% 0.0 mm
05:21 -1.6 °C -4.0 °C 1020.9 hPa NE 10.1 km/h 10.1 km/h 89% 0.0 mm
05:26 -1.6 °C -4.0 °C 1020.9 hPa NE 10.1 km/h 10.1 km/h 89% 0.0 mm
05:31 -1.6 °C -4.0 °C 1020.9 hPa NE 10.1 km/h 10.1 km/h 89% 0.0 mm
05:36 -1.6 °C -4.0 °C 1020.9 hPa NE 10.1 km/h 10.1 km/h 89% 0.0 mm
05:41 -1.6 °C -4.0 °C 1020.9 hPa NE 10.1 km/h 10.1 km/h 89% 0.0 mm
05:46 -1.6 °C -4.0 °C 1019.9 hPa NE 10.1 km/h 10.1 km/h 89% 0.0 mm
05:51 -1.6 °C -4.0 °C 1019.9 hPa NE 10.1 km/h 10.1 km/h 89% 0.0 mm
05:56 -1.6 °C -4.0 °C 1019.9 hPa NE 10.1 km/h 10.1 km/h 89% 0.0 mm
06:01 -1.7 °C -4.0 °C 1020.9 hPa NE 10.1 km/h 10.1 km/h 89% 0.0 mm
06:06 -1.7 °C -4.0 °C 1020.9 hPa NE 10.1 km/h 10.1 km/h 89% 0.0 mm
06:11 -1.7 °C -4.0 °C 1020.9 hPa NE 10.1 km/h 10.1 km/h 89% 0.0 mm
06:16 -1.7 °C -4.0 °C 1020.9 hPa NE 14.0 km/h 14.0 km/h 88% 0.0 mm
06:21 -1.7 °C -4.0 °C 1020.9 hPa NE 12.2 km/h 14.0 km/h 88% 0.0 mm
06:26 -1.6 °C -4.0 °C 1020.9 hPa NE 11.9 km/h 14.0 km/h 89% 0.0 mm
06:31 -1.6 °C -4.0 °C 1020.9 hPa NE 11.9 km/h 12.2 km/h 88% 0.0 mm
06:36 -1.6 °C -4.0 °C 1020.9 hPa NE 11.9 km/h 11.9 km/h 88% 0.0 mm
06:42 -1.7 °C -4.0 °C 1020.9 hPa NE 11.9 km/h 11.9 km/h 88% 0.0 mm
06:47 -1.7 °C -4.0 °C 1020.9 hPa NE 11.9 km/h 11.9 km/h 88% 0.0 mm
06:52 -1.7 °C -4.0 °C 1020.9 hPa NE 11.9 km/h 11.9 km/h 89% 0.0 mm
06:57 -1.7 °C -4.0 °C 1020.9 hPa NE 11.9 km/h 11.9 km/h 89% 0.0 mm
07:02 -1.7 °C -4.0 °C 1020.9 hPa NE 11.9 km/h 11.9 km/h 89% 0.0 mm
07:07 -1.7 °C -4.0 °C 1020.9 hPa NE 11.9 km/h 11.9 km/h 88% 0.0 mm
07:12 -1.8 °C -4.0 °C 1020.9 hPa NE 11.9 km/h 11.9 km/h 88% 0.0 mm
07:17 -1.8 °C -4.0 °C 1020.9 hPa NE 11.9 km/h 11.9 km/h 88% 0.0 mm
07:22 -1.8 °C -4.0 °C 1020.9 hPa NNE 9.7 km/h 9.7 km/h 88% 0.0 mm
07:27 -1.8 °C -4.0 °C 1020.9 hPa NNE 9.7 km/h 9.7 km/h 89% 0.0 mm
07:32 -1.9 °C -4.0 °C 1020.9 hPa NNE 9.7 km/h 9.7 km/h 88% 0.0 mm
07:37 -1.9 °C -4.0 °C 1020.9 hPa NNE 9.7 km/h 9.7 km/h 88% 0.0 mm
07:42 -1.9 °C -4.0 °C 1020.9 hPa NNE 9.7 km/h 9.7 km/h 88% 0.0 mm
07:47 -1.9 °C -4.0 °C 1020.9 hPa NE 8.7 km/h 8.7 km/h 88% 0.0 mm
07:52 -1.9 °C -4.0 °C 1020.9 hPa NE 10.5 km/h 14.8 km/h 88% 0.0 mm
07:57 -1.9 °C -4.0 °C 1020.9 hPa NE 10.5 km/h 14.8 km/h 88% 0.0 mm
08:02 -1.9 °C -4.0 °C 1020.9 hPa NE 9.3 km/h 10.5 km/h 88% 0.0 mm
08:07 -1.9 °C -4.0 °C 1020.9 hPa NE 10.1 km/h 10.5 km/h 88% 0.0 mm
08:12 -1.9 °C -4.0 °C 1020.9 hPa NE 11.1 km/h 15.4 km/h 88% 0.0 mm
08:17 -1.8 °C -4.0 °C 1020.9 hPa NNE 6.9 km/h 15.4 km/h 88% 0.0 mm
08:22 -1.8 °C -4.0 °C 1020.9 hPa NNE 6.9 km/h 11.1 km/h 88% 0.0 mm
08:27 -1.7 °C -4.0 °C 1020.9 hPa NNE 13.0 km/h 13.0 km/h 88% 0.0 mm
08:32 -1.6 °C -4.0 °C 1021.9 hPa NNE 9.0 km/h 13.0 km/h 88% 0.0 mm
08:38 -1.5 °C -4.0 °C 1021.9 hPa NNE 10.5 km/h 13.0 km/h 88% 0.0 mm
08:43 -1.4 °C -4.0 °C 1021.9 hPa NNE 12.2 km/h 13.0 km/h 88% 0.0 mm
08:48 -1.2 °C -4.0 °C 1021.9 hPa North 11.6 km/h 12.2 km/h 88% 0.0 mm
08:53 -1.1 °C -3.0 °C 1021.9 hPa NE 8.7 km/h 14.0 km/h 88% 0.0 mm
08:58 -1.0 °C -3.0 °C 1021.9 hPa NE 12.6 km/h 14.0 km/h 87% 0.0 mm
09:03 -0.8 °C -4.0 °C 1021.9 hPa ENE 9.7 km/h 13.7 km/h 86% 0.0 mm
09:08 -0.7 °C -3.0 °C 1021.9 hPa NNE 12.2 km/h 13.7 km/h 86% 0.0 mm
09:13 -0.5 °C -3.0 °C 1021.9 hPa NE 9.0 km/h 12.6 km/h 85% 0.0 mm
09:18 -0.3 °C -3.0 °C 1021.9 hPa ENE 11.6 km/h 12.2 km/h 85% 0.0 mm
09:23 -0.2 °C -3.0 °C 1021.9 hPa East 10.5 km/h 13.7 km/h 84% 0.0 mm
09:28 -0.1 °C -3.0 °C 1021.9 hPa ENE 12.6 km/h 14.8 km/h 83% 0.0 mm
09:33 0.1 °C -2.0 °C 1021.9 hPa ENE 16.3 km/h 16.3 km/h 82% 0.0 mm
09:38 0.1 °C -3.0 °C 1021.9 hPa NE 10.8 km/h 17.2 km/h 81% 0.0 mm
09:43 0.3 °C -2.0 °C 1021.9 hPa NE 13.7 km/h 17.2 km/h 80% 0.0 mm
09:48 0.4 °C -3.0 °C 1021.9 hPa East 12.6 km/h 16.3 km/h 79% 0.0 mm
09:53 0.5 °C -2.0 °C 1021.9 hPa NE 12.6 km/h 16.3 km/h 79% 0.0 mm
09:58 0.7 °C -3.0 °C 1021.9 hPa NE 9.7 km/h 16.3 km/h 78% 0.0 mm
10:04 0.8 °C -2.0 °C 1021.9 hPa ENE 13.0 km/h 16.3 km/h 78% 0.0 mm
10:09 0.9 °C -2.0 °C 1021.9 hPa NE 12.2 km/h 15.4 km/h 77% 0.0 mm
10:14 1.1 °C -3.0 °C 1021.9 hPa ENE 12.2 km/h 15.4 km/h 76% 0.0 mm
10:19 1.2 °C -3.0 °C 1021.9 hPa ENE 13.0 km/h 14.0 km/h 74% 0.0 mm
10:24 1.4 °C -3.0 °C 1021.9 hPa ENE 10.1 km/h 16.3 km/h 74% 0.0 mm
10:29 1.5 °C -2.0 °C 1021.9 hPa NNE 12.2 km/h 19.8 km/h 74% 0.0 mm
10:34 1.7 °C -3.0 °C 1021.9 hPa NE 11.9 km/h 19.8 km/h 73% 0.0 mm
10:39 1.8 °C -3.0 °C 1021.9 hPa NE 10.5 km/h 15.4 km/h 72% 0.0 mm
10:44 1.9 °C -3.0 °C 1021.9 hPa NE 14.0 km/h 20.9 km/h 70% 0.0 mm
10:49 2.0 °C -3.0 °C 1021.9 hPa NE 9.0 km/h 20.9 km/h 69% 0.0 mm
10:54 2.2 °C -3.0 °C 1021.9 hPa ENE 6.9 km/h 16.6 km/h 70% 0.0 mm
10:59 2.4 °C -3.0 °C 1021.9 hPa ENE 12.2 km/h 15.8 km/h 69% 0.0 mm
11:05 2.4 °C -3.0 °C 1021.9 hPa ENE 15.4 km/h 19.8 km/h 67% 0.0 mm
11:10 2.5 °C -3.0 °C 1021.9 hPa ENE 15.8 km/h 20.9 km/h 66% 0.0 mm
11:15 2.6 °C -3.0 °C 1021.9 hPa ENE 23.8 km/h 23.8 km/h 67% 0.0 mm
11:20 2.7 °C -3.0 °C 1021.9 hPa NE 14.0 km/h 23.8 km/h 66% 0.0 mm
11:25 2.8 °C -3.0 °C 1021.9 hPa ENE 13.7 km/h 23.8 km/h 65% 0.0 mm
11:30 3.0 °C -3.0 °C 1021.9 hPa NE 11.9 km/h 16.9 km/h 63% 0.0 mm
11:35 3.0 °C -3.0 °C 1021.9 hPa ENE 12.2 km/h 23.8 km/h 62% 0.0 mm
11:40 3.1 °C -3.0 °C 1021.9 hPa ENE 13.0 km/h 23.8 km/h 62% 0.0 mm
11:45 3.2 °C -3.0 °C 1021.9 hPa ENE 16.3 km/h 20.9 km/h 60% 0.0 mm
11:50 3.4 °C -3.0 °C 1021.9 hPa ENE 12.6 km/h 21.2 km/h 61% 0.0 mm
11:55 3.6 °C -3.0 °C 1021.9 hPa NNE 12.2 km/h 21.2 km/h 59% 0.0 mm
12:00 3.7 °C -4.0 °C 1021.9 hPa East 10.1 km/h 23.0 km/h 58% 0.0 mm
12:05 3.8 °C -4.0 °C 1021.9 hPa East 13.7 km/h 23.0 km/h 58% 0.0 mm
12:10 4.0 °C -3.0 °C 1021.9 hPa ESE 13.0 km/h 16.9 km/h 58% 0.0 mm
12:15 4.1 °C -4.0 °C 1021.9 hPa East 20.1 km/h 21.9 km/h 56% 0.0 mm
12:20 4.3 °C -3.0 °C 1021.9 hPa East 9.7 km/h 21.9 km/h 57% 0.0 mm
12:25 4.4 °C -4.0 °C 1021.9 hPa East 12.2 km/h 20.1 km/h 55% 0.0 mm
12:30 4.5 °C -4.0 °C 1021.9 hPa East 13.7 km/h 19.8 km/h 55% 0.0 mm
12:35 4.7 °C -4.0 °C 1021.9 hPa ESE 15.8 km/h 19.5 km/h 55% 0.0 mm
12:40 4.8 °C -4.0 °C 1021.9 hPa East 12.6 km/h 20.6 km/h 53% 0.0 mm
12:45 4.9 °C -4.0 °C 1021.9 hPa ENE 12.2 km/h 20.6 km/h 53% 0.0 mm
12:50 5.0 °C -4.0 °C 1021.9 hPa NNE 13.7 km/h 17.2 km/h 52% 0.0 mm
12:55 5.2 °C -4.0 °C 1021.9 hPa ENE 11.9 km/h 19.8 km/h 52% 0.0 mm
13:00 5.3 °C -3.0 °C 1020.9 hPa East 12.6 km/h 19.8 km/h 52% 0.0 mm
13:05 5.4 °C -4.0 °C 1020.9 hPa East 13.7 km/h 27.7 km/h 50% 0.0 mm
13:10 5.4 °C -4.0 °C 1020.9 hPa East 9.0 km/h 27.7 km/h 50% 0.0 mm
13:15 5.7 °C -4.0 °C 1020.9 hPa East 17.2 km/h 17.7 km/h 50% 0.0 mm
13:20 5.7 °C -4.0 °C 1020.9 hPa ENE 11.6 km/h 17.7 km/h 50% 0.0 mm
13:25 5.7 °C -4.0 °C 1020.9 hPa East 12.6 km/h 19.5 km/h 49% 0.0 mm
13:30 5.8 °C -4.0 °C 1020.9 hPa East 15.8 km/h 19.5 km/h 49% 0.0 mm
13:35 5.9 °C -4.0 °C 1020.9 hPa ENE 16.3 km/h 17.2 km/h 48% 0.0 mm
13:40 6.0 °C -4.0 °C 1020.9 hPa East 14.0 km/h 20.1 km/h 48% 0.0 mm
13:45 5.9 °C -4.0 °C 1020.9 hPa ENE 14.0 km/h 20.9 km/h 47% 0.0 mm
13:51 6.0 °C -4.0 °C 1020.9 hPa ESE 14.8 km/h 20.9 km/h 47% 0.0 mm
13:56 6.1 °C -4.0 °C 1020.9 hPa East 12.6 km/h 18.0 km/h 47% 0.0 mm
14:01 6.3 °C -4.0 °C 1020.9 hPa East 10.1 km/h 20.9 km/h 47% 0.0 mm
14:06 6.3 °C -4.0 °C 1020.9 hPa ENE 12.2 km/h 20.9 km/h 47% 0.0 mm
14:11 6.1 °C -5.0 °C 1020.9 hPa ENE 21.2 km/h 28.0 km/h 45% 0.0 mm
14:16 6.2 °C -5.0 °C 1020.9 hPa ESE 10.1 km/h 28.0 km/h 45% 0.0 mm
14:21 6.3 °C -4.0 °C 1020.9 hPa NE 16.3 km/h 20.9 km/h 46% 0.0 mm
14:26 6.2 °C -5.0 °C 1020.9 hPa NE 21.9 km/h 30.9 km/h 45% 0.0 mm
14:31 6.1 °C -5.0 °C 1019.9 hPa East 21.2 km/h 31.4 km/h 44% 0.0 mm
14:36 6.1 °C -5.0 °C 1019.9 hPa NNE 20.1 km/h 31.4 km/h 45% 0.0 mm
14:41 6.1 °C -5.0 °C 1019.9 hPa ENE 19.8 km/h 25.3 km/h 45% 0.0 mm
14:46 6.0 °C -5.0 °C 1020.9 hPa ENE 16.9 km/h 21.2 km/h 45% 0.0 mm
14:51 6.2 °C -5.0 °C 1020.9 hPa ENE 14.0 km/h 21.2 km/h 45% 0.0 mm
14:56 6.2 °C -5.0 °C 1020.9 hPa ENE 16.3 km/h 20.6 km/h 45% 0.0 mm
15:01 6.3 °C -5.0 °C 1020.9 hPa NE 14.8 km/h 19.8 km/h 45% 0.0 mm
15:06 6.3 °C -4.0 °C 1020.9 hPa NNE 18.0 km/h 20.9 km/h 46% 0.0 mm
15:11 6.3 °C -5.0 °C 1020.9 hPa NE 20.9 km/h 24.8 km/h 44% 0.0 mm
15:16 6.2 °C -5.0 °C 1020.9 hPa East 16.6 km/h 24.8 km/h 44% 0.0 mm
15:21 6.2 °C -5.0 °C 1020.9 hPa NE 16.9 km/h 24.5 km/h 44% 0.0 mm
15:26 6.2 °C -5.0 °C 1020.9 hPa ENE 13.0 km/h 24.5 km/h 44% 0.0 mm
15:31 6.4 °C -5.0 °C 1020.9 hPa ENE 17.2 km/h 20.1 km/h 45% 0.0 mm
15:36 6.4 °C -5.0 °C 1020.9 hPa NE 16.3 km/h 21.2 km/h 45% 0.0 mm
15:42 6.3 °C -5.0 °C 1020.9 hPa ENE 20.1 km/h 31.4 km/h 43% 0.0 mm
15:47 6.3 °C -5.0 °C 1019.9 hPa ENE 10.1 km/h 31.4 km/h 44% 0.0 mm
15:52 6.4 °C -5.0 °C 1019.9 hPa ENE 14.0 km/h 24.5 km/h 44% 0.0 mm
15:57 6.4 °C -5.0 °C 1019.9 hPa ENE 24.8 km/h 28.5 km/h 44% 0.0 mm
16:02 6.2 °C -5.0 °C 1019.9 hPa ENE 17.2 km/h 28.5 km/h 43% 0.0 mm
16:07 6.1 °C -5.0 °C 1019.9 hPa NE 14.0 km/h 24.5 km/h 44% 0.0 mm
16:12 6.1 °C -5.0 °C 1019.9 hPa NE 13.7 km/h 24.5 km/h 45% 0.0 mm
16:17 5.9 °C -5.0 °C 1019.9 hPa NNE 29.9 km/h 29.9 km/h 44% 0.0 mm
16:22 5.8 °C -5.0 °C 1019.9 hPa NE 17.2 km/h 29.9 km/h 45% 0.0 mm
16:27 5.8 °C -5.0 °C 1019.9 hPa NE 23.0 km/h 31.4 km/h 45% 0.0 mm
16:32 5.7 °C -5.0 °C 1019.9 hPa NE 15.8 km/h 31.4 km/h 45% 0.0 mm
16:37 5.6 °C -5.0 °C 1019.9 hPa NE 16.6 km/h 28.0 km/h 47% 0.0 mm
16:42 5.4 °C -5.0 °C 1019.9 hPa NE 21.2 km/h 25.6 km/h 47% 0.0 mm
16:47 5.3 °C -5.0 °C 1019.9 hPa NE 20.1 km/h 25.6 km/h 48% 0.0 mm
16:52 5.3 °C -4.0 °C 1019.9 hPa NE 19.5 km/h 25.9 km/h 49% 0.0 mm
16:57 5.2 °C -5.0 °C 1019.9 hPa ENE 17.2 km/h 24.5 km/h 49% 0.0 mm
17:02 5.1 °C -5.0 °C 1019.9 hPa NE 20.1 km/h 24.8 km/h 48% 0.0 mm
17:07 5.1 °C -5.0 °C 1019.9 hPa NE 17.7 km/h 27.0 km/h 48% 0.0 mm
17:12 5.0 °C -5.0 °C 1019.9 hPa NE 15.4 km/h 27.0 km/h 48% 0.0 mm
17:17 4.9 °C -5.0 °C 1018.8 hPa NNE 17.7 km/h 26.7 km/h 49% 0.0 mm
17:23 4.8 °C -5.0 °C 1018.8 hPa NNE 20.1 km/h 29.1 km/h 49% 0.0 mm
17:28 4.7 °C -5.0 °C 1018.8 hPa NE 19.8 km/h 29.1 km/h 49% 0.0 mm
17:33 4.6 °C -5.0 °C 1019.9 hPa NE 15.8 km/h 26.7 km/h 49% 0.0 mm
17:38 4.6 °C -5.0 °C 1019.9 hPa ENE 14.3 km/h 25.3 km/h 50% 0.0 mm
17:43 4.4 °C -5.0 °C 1019.9 hPa NNE 15.4 km/h 20.9 km/h 51% 0.0 mm
17:48 4.3 °C -5.0 °C 1019.9 hPa NNE 15.8 km/h 20.9 km/h 51% 0.0 mm
17:53 4.1 °C -5.0 °C 1019.9 hPa NNE 15.1 km/h 20.6 km/h 52% 0.0 mm
17:58 3.8 °C -5.0 °C 1019.9 hPa NE 16.6 km/h 20.6 km/h 55% 0.0 mm
18:03 3.6 °C -4.0 °C 1019.9 hPa NE 13.7 km/h 19.8 km/h 57% 0.0 mm
18:08 3.4 °C -4.0 °C 1019.9 hPa NNE 14.8 km/h 21.2 km/h 58% 0.0 mm
18:13 3.3 °C -4.0 °C 1019.9 hPa NE 13.7 km/h 21.2 km/h 59% 0.0 mm
18:18 3.2 °C -3.0 °C 1018.8 hPa ENE 17.2 km/h 27.4 km/h 60% 0.0 mm
18:23 3.1 °C -4.0 °C 1018.8 hPa NE 20.1 km/h 27.4 km/h 61% 0.0 mm
18:28 3.0 °C -3.0 °C 1018.8 hPa NE 16.3 km/h 20.6 km/h 62% 0.0 mm
18:33 2.8 °C -3.0 °C 1019.9 hPa NNE 18.0 km/h 20.1 km/h 63% 0.0 mm
18:38 2.8 °C -3.0 °C 1019.9 hPa NE 13.7 km/h 20.1 km/h 63% 0.0 mm
18:43 2.7 °C -3.0 °C 1019.9 hPa NE 11.6 km/h 16.9 km/h 63% 0.0 mm
18:48 2.6 °C -3.0 °C 1019.9 hPa NE 16.3 km/h 21.2 km/h 63% 0.0 mm
18:53 2.6 °C -3.0 °C 1019.9 hPa NNE 16.3 km/h 21.2 km/h 63% 0.0 mm
18:58 2.5 °C -4.0 °C 1019.9 hPa NE 14.8 km/h 20.6 km/h 62% 0.0 mm
19:03 2.4 °C -4.0 °C 1019.9 hPa NE 12.2 km/h 20.6 km/h 62% 0.0 mm
19:08 2.4 °C -4.0 °C 1019.9 hPa NE 16.3 km/h 20.1 km/h 62% 0.0 mm
19:13 2.4 °C -4.0 °C 1019.9 hPa NE 11.9 km/h 19.8 km/h 62% 0.0 mm
19:18 2.3 °C -4.0 °C 1019.9 hPa NE 11.9 km/h 16.9 km/h 63% 0.0 mm
19:23 2.3 °C -4.0 °C 1019.9 hPa ENE 20.6 km/h 20.6 km/h 63% 0.0 mm
19:28 2.3 °C -4.0 °C 1019.9 hPa NE 20.9 km/h 20.9 km/h 62% 0.0 mm
19:33 2.4 °C -4.0 °C 1018.8 hPa NE 12.6 km/h 21.2 km/h 62% 0.0 mm
19:38 2.4 °C -4.0 °C 1018.8 hPa NNE 14.0 km/h 23.0 km/h 62% 0.0 mm
19:43 2.3 °C -4.0 °C 1018.8 hPa ENE 12.2 km/h 23.0 km/h 62% 0.0 mm
19:48 2.3 °C -4.0 °C 1019.9 hPa NE 16.6 km/h 22.7 km/h 62% 0.0 mm
19:53 2.3 °C -4.0 °C 1019.9 hPa ENE 17.7 km/h 24.8 km/h 61% 0.0 mm
19:59 2.3 °C -4.0 °C 1019.9 hPa ENE 15.8 km/h 24.8 km/h 62% 0.0 mm
20:04 2.3 °C -4.0 °C 1019.9 hPa ENE 14.0 km/h 24.5 km/h 62% 0.0 mm
20:09 2.2 °C -4.0 °C 1019.9 hPa NE 15.4 km/h 24.5 km/h 62% 0.0 mm
20:14 2.2 °C -4.0 °C 1019.9 hPa ENE 12.6 km/h 23.8 km/h 62% 0.0 mm
20:19 2.1 °C -4.0 °C 1019.9 hPa NE 13.0 km/h 23.8 km/h 62% 0.0 mm
20:24 2.1 °C -4.0 °C 1019.9 hPa NE 17.7 km/h 20.1 km/h 63% 0.0 mm
20:29 2.0 °C -4.0 °C 1019.9 hPa ENE 16.6 km/h 20.1 km/h 63% 0.0 mm
20:34 1.9 °C -4.0 °C 1019.9 hPa NE 13.7 km/h 19.1 km/h 64% 0.0 mm
20:39 1.8 °C -4.0 °C 1019.9 hPa NE 10.5 km/h 16.6 km/h 65% 0.0 mm
20:44 1.7 °C -4.0 °C 1019.9 hPa NE 10.5 km/h 15.8 km/h 65% 0.0 mm
20:49 1.7 °C -4.0 °C 1019.9 hPa NE 14.0 km/h 15.8 km/h 65% 0.0 mm
20:54 1.7 °C -4.0 °C 1019.9 hPa NE 13.0 km/h 15.4 km/h 66% 0.0 mm
20:59 1.6 °C -4.0 °C 1019.9 hPa NE 6.1 km/h 14.0 km/h 66% 0.0 mm
21:04 1.3 °C -4.0 °C 1019.9 hPa NNE 9.7 km/h 13.0 km/h 66% 0.0 mm
21:09 1.3 °C -4.0 °C 1019.9 hPa NE 12.2 km/h 14.3 km/h 68% 0.0 mm
21:14 1.3 °C -4.0 °C 1019.9 hPa NE 9.3 km/h 19.1 km/h 68% 0.0 mm
21:19 1.4 °C -4.0 °C 1019.9 hPa NNE 14.3 km/h 19.1 km/h 69% 0.0 mm
21:24 1.3 °C -4.0 °C 1019.9 hPa North 13.0 km/h 19.5 km/h 68% 0.0 mm
21:29 1.4 °C -4.0 °C 1019.9 hPa NE 14.0 km/h 19.5 km/h 68% 0.0 mm
21:34 1.4 °C -4.0 °C 1019.9 hPa East 16.3 km/h 21.2 km/h 68% 0.0 mm
21:39 1.4 °C -4.0 °C 1019.9 hPa NE 16.9 km/h 21.2 km/h 67% 0.0 mm
21:44 1.3 °C -4.0 °C 1020.9 hPa NE 14.0 km/h 19.1 km/h 67% 0.0 mm
21:49 1.3 °C -4.0 °C 1020.9 hPa East 16.3 km/h 17.7 km/h 67% 0.0 mm
21:54 1.3 °C -4.0 °C 1020.9 hPa ENE 17.2 km/h 17.7 km/h 67% 0.0 mm
21:59 1.3 °C -4.0 °C 1020.9 hPa NE 12.6 km/h 17.7 km/h 67% 0.0 mm
22:05 1.3 °C -4.0 °C 1020.9 hPa NE 12.2 km/h 17.7 km/h 67% 0.0 mm
22:10 1.3 °C -4.0 °C 1020.9 hPa ENE 13.0 km/h 17.7 km/h 66% 0.0 mm
22:15 1.3 °C -4.0 °C 1020.9 hPa ENE 10.1 km/h 17.2 km/h 66% 0.0 mm
22:20 1.2 °C -4.0 °C 1020.9 hPa NE 13.0 km/h 19.5 km/h 66% 0.0 mm
22:25 1.2 °C -4.0 °C 1020.9 hPa East 16.3 km/h 19.5 km/h 66% 0.0 mm
22:30 1.2 °C -4.0 °C 1020.9 hPa NE 13.0 km/h 19.5 km/h 66% 0.0 mm
22:35 1.1 °C -5.0 °C 1020.9 hPa NE 17.2 km/h 17.2 km/h 66% 0.0 mm
22:40 1.1 °C -5.0 °C 1020.9 hPa NE 12.6 km/h 17.2 km/h 66% 0.0 mm
22:45 1.1 °C -5.0 °C 1020.9 hPa ENE 10.1 km/h 19.8 km/h 66% 0.0 mm
22:50 1.0 °C -5.0 °C 1020.9 hPa ENE 10.5 km/h 19.8 km/h 66% 0.0 mm
22:55 1.0 °C -4.0 °C 1020.9 hPa ENE 13.7 km/h 17.7 km/h 67% 0.0 mm
23:00 0.9 °C -4.0 °C 1020.9 hPa NE 8.7 km/h 19.5 km/h 67% 0.0 mm
23:05 0.9 °C -4.0 °C 1020.9 hPa ENE 14.0 km/h 19.5 km/h 67% 0.0 mm
23:10 0.9 °C -4.0 °C 1020.9 hPa NE 13.0 km/h 19.5 km/h 67% 0.0 mm
23:15 0.8 °C -4.0 °C 1020.9 hPa ENE 11.9 km/h 16.6 km/h 67% 0.0 mm
23:20 0.8 °C -4.0 °C 1020.9 hPa ENE 11.9 km/h 14.8 km/h 67% 0.0 mm
23:25 0.8 °C -4.0 °C 1020.9 hPa ENE 9.7 km/h 11.9 km/h 67% 0.0 mm
23:30 0.8 °C -4.0 °C 1020.9 hPa ENE 12.6 km/h 19.5 km/h 67% 0.0 mm
23:35 0.8 °C -4.0 °C 1020.9 hPa ENE 13.7 km/h 19.5 km/h 67% 0.0 mm
23:40 0.7 °C -5.0 °C 1020.9 hPa East 12.6 km/h 18.3 km/h 67% 0.0 mm
23:45 0.6 °C -4.0 °C 1020.9 hPa ENE 10.5 km/h 18.3 km/h 68% 0.0 mm
23:50 0.6 °C -4.0 °C 1020.9 hPa NE 10.5 km/h 15.8 km/h 68% 0.0 mm
23:56 0.5 °C -4.0 °C 1020.9 hPa ENE 7.9 km/h 14.3 km/h 68% 0.0 mm
Données Historique de Météo Turbie

Mise a jour : 18/06/2018 01:57:12
Généré par Cumulus 1.9.4 (1099)